DLH1069 LFMN-EDDF

Flight info

Callsign DLH1069
Flight time 1h 26m
Altitude 38000
Route BASIP DCT ANAKI DCT KEMMI DCT SRN DCT ABESI DCT LADOL T163 EMPAX EMPAX5A
Aircraft A320/M-SDE3FGHIRWY/LB1

Departure

Time 2026-04-18 07:59
Airport Nice-Côte d'Azur Airport (LFMN)

Arrival

Time 2026-04-18 09:25
Airport Frankfurt Main Airport (EDDF)
Time Latitude Longitude Altitude Speed Heading
2026-04-18 07:31 43.66429 7.21327 25 ft 0 kts 350°
2026-04-18 07:49 43.66426 7.21327 21 ft 3 kts 350°
2026-04-18 07:49 43.66399 7.21333 21 ft 4 kts 350°
2026-04-18 07:49 43.66373 7.21340 21 ft 4 kts 352°
2026-04-18 07:50 43.66350 7.21337 23 ft 4 kts 43°
2026-04-18 07:50 43.66339 7.21307 21 ft 3 kts 80°
2026-04-18 07:50 43.66336 7.21282 21 ft 1 kts 80°
2026-04-18 07:53 43.66339 7.21315 21 ft 8 kts 85°
2026-04-18 07:54 43.66294 7.21357 21 ft 11 kts 216°
2026-04-18 07:54 43.66244 7.21286 21 ft 10 kts 225°
2026-04-18 07:54 43.66184 7.21204 21 ft 15 kts 225°
2026-04-18 07:54 43.66107 7.21098 21 ft 15 kts 225°
2026-04-18 07:55 43.66035 7.20999 21 ft 14 kts 225°
2026-04-18 07:55 43.65970 7.20910 21 ft 12 kts 225°
2026-04-18 07:55 43.65903 7.20842 21 ft 13 kts 190°
2026-04-18 07:55 43.65791 7.20865 21 ft 18 kts 170°
2026-04-18 07:56 43.65660 7.20895 21 ft 20 kts 170°
2026-04-18 07:56 43.65517 7.20928 21 ft 22 kts 171°
2026-04-18 07:56 43.65361 7.20949 21 ft 22 kts 195°
2026-04-18 07:56 43.65241 7.20805 21 ft 24 kts 224°
2026-04-18 07:57 43.65118 7.20636 21 ft 26 kts 225°
2026-04-18 07:57 43.64991 7.20462 23 ft 25 kts 225°
2026-04-18 07:57 43.64907 7.20346 22 ft 8 kts 225°
2026-04-18 07:57 43.64865 7.20288 21 ft 11 kts 225°
2026-04-18 07:58 43.64772 7.20387 23 ft 8 kts 44°
2026-04-18 07:58 43.64784 7.20403 23 ft 2 kts 44°
2026-04-18 07:58 43.64811 7.20441 24 ft 23 kts 45°
2026-04-18 07:59 43.65125 7.20871 21 ft 99 kts 45°
2026-04-18 07:59 43.65753 7.21735 29 ft 153 kts 45°
2026-04-18 07:59 43.66509 7.22814 631 ft 157 kts 53°
2026-04-18 07:59 43.66919 7.24198 1282 ft 164 kts 82°
2026-04-18 08:00 43.66747 7.25851 1621 ft 188 kts 116°
2026-04-18 08:00 43.65892 7.27340 2015 ft 208 kts 133°
2026-04-18 08:00 43.64872 7.28835 2578 ft 218 kts 132°
2026-04-18 08:00 43.63829 7.30401 3383 ft 223 kts 128°
2026-04-18 08:01 43.63277 7.32346 4260 ft 222 kts 90°
2026-04-18 08:01 43.63453 7.33756 4844 ft 223 kts 71°
2026-04-18 08:01 43.64232 7.36407 5941 ft 227 kts 70°
2026-04-18 08:01 43.64784 7.38456 6774 ft 230 kts 71°
2026-04-18 08:02 43.65329 7.40548 7554 ft 233 kts 70°
2026-04-18 08:02 43.65877 7.42673 8366 ft 236 kts 69°
2026-04-18 08:02 43.66240 7.44091 8906 ft 224 kts 72°
2026-04-18 08:02 43.66715 7.46131 9242 ft 233 kts 70°
2026-04-18 08:03 43.67254 7.48272 9811 ft 244 kts 69°
2026-04-18 08:03 43.67841 7.50537 10239 ft 262 kts 69°
2026-04-18 08:03 43.68506 7.52991 10608 ft 283 kts 67°
2026-04-18 08:03 43.69244 7.55619 11036 ft 303 kts 68°
2026-04-18 08:04 43.70020 7.58435 11433 ft 324 kts 68°
2026-04-18 08:04 43.70839 7.61422 11861 ft 341 kts 68°
2026-04-18 08:04 43.71686 7.64597 12104 ft 362 kts 68°
2026-04-18 08:04 43.72562 7.67921 12710 ft 369 kts 68°
2026-04-18 08:05 43.73445 7.71261 13575 ft 370 kts 68°
2026-04-18 08:05 43.74608 7.74421 14328 ft 369 kts 53°
2026-04-18 08:05 43.76231 7.77179 14966 ft 372 kts 45°
2026-04-18 08:05 43.78089 7.79707 15547 ft 377 kts 41°
2026-04-18 08:06 43.80014 7.82198 16147 ft 382 kts 41°
2026-04-18 08:06 43.81930 7.84773 16787 ft 385 kts 43°
2026-04-18 08:06 43.83791 7.87454 17442 ft 388 kts 45°
2026-04-18 08:06 43.85614 7.90238 18033 ft 393 kts 46°
2026-04-18 08:07 43.87428 7.93117 18513 ft 399 kts 47°
2026-04-18 08:07 43.89182 7.96107 19052 ft 403 kts 53°
2026-04-18 08:07 43.90589 7.99490 19615 ft 406 kts 60°
2026-04-18 08:07 43.91921 8.02948 20192 ft 407 kts 59°
2026-04-18 08:08 43.93297 8.06393 20714 ft 410 kts 58°
2026-04-18 08:08 43.94713 8.09846 21167 ft 414 kts 57°
2026-04-18 08:08 43.96162 8.13309 21658 ft 417 kts 57°
2026-04-18 08:08 43.97624 8.16796 22152 ft 419 kts 57°
2026-04-18 08:09 43.99086 8.20314 22656 ft 422 kts 57°
2026-04-18 08:09 44.00545 8.23863 23133 ft 425 kts 57°
2026-04-18 08:09 44.02001 8.27444 23600 ft 427 kts 57°
2026-04-18 08:09 44.03460 8.31058 23998 ft 430 kts 57°
2026-04-18 08:10 44.04922 8.34693 24389 ft 432 kts 58°
2026-04-18 08:10 44.06393 8.38349 24758 ft 435 kts 58°
2026-04-18 08:10 44.07876 8.42032 25129 ft 437 kts 58°
2026-04-18 08:10 44.09365 8.45736 25504 ft 440 kts 58°
2026-04-18 08:11 44.10841 8.49410 25852 ft 442 kts 58°
2026-04-18 08:11 44.12366 8.53207 26192 ft 445 kts 58°
2026-04-18 08:11 44.13859 8.56931 26532 ft 448 kts 58°
2026-04-18 08:11 44.15382 8.60726 26856 ft 450 kts 58°
2026-04-18 08:12 44.17054 8.64405 27171 ft 450 kts 50°
2026-04-18 08:12 44.19154 8.67619 27466 ft 449 kts 40°
2026-04-18 08:12 44.21628 8.70263 27776 ft 449 kts 30°
2026-04-18 08:12 44.24397 8.72253 28085 ft 449 kts 20°
2026-04-18 08:13 44.27386 8.73529 28355 ft 450 kts 10°
2026-04-18 08:13 44.30494 8.74117 28609 ft 452 kts
2026-04-18 08:13 44.33632 8.74578 28893 ft 454 kts
2026-04-18 08:13 44.36774 8.75045 29298 ft 454 kts
2026-04-18 08:14 44.39915 8.75515 29727 ft 453 kts
2026-04-18 08:14 44.43049 8.75985 30154 ft 453 kts
2026-04-18 08:14 44.46175 8.76456 30529 ft 452 kts
2026-04-18 08:14 44.49298 8.76930 30907 ft 451 kts
2026-04-18 08:15 44.52410 8.77406 31308 ft 449 kts
2026-04-18 08:15 44.55510 8.77878 31715 ft 447 kts
2026-04-18 08:15 44.58598 8.78348 32126 ft 446 kts
2026-04-18 08:15 44.61678 8.78820 32530 ft 444 kts
2026-04-18 08:16 44.64742 8.79288 32937 ft 442 kts
2026-04-18 08:16 44.67796 8.79753 33333 ft 441 kts
2026-04-18 08:16 44.70848 8.80214 33713 ft 440 kts
2026-04-18 08:16 44.73886 8.80672 34111 ft 439 kts
2026-04-18 08:17 44.76918 8.81129 34458 ft 438 kts
2026-04-18 08:17 44.79939 8.81657 34780 ft 437 kts
2026-04-18 08:17 44.82945 8.82316 35097 ft 437 kts
2026-04-18 08:17 44.85938 8.83054 35399 ft 437 kts
2026-04-18 08:18 44.88926 8.83824 35678 ft 436 kts
2026-04-18 08:18 44.91911 8.84592 35956 ft 436 kts
2026-04-18 08:18 44.94895 8.85345 36233 ft 435 kts
2026-04-18 08:18 44.97878 8.86076 36506 ft 435 kts
2026-04-18 08:19 45.00859 8.86790 36763 ft 434 kts
2026-04-18 08:19 45.03840 8.87493 37020 ft 434 kts
2026-04-18 08:19 45.06819 8.88195 37258 ft 434 kts
2026-04-18 08:19 45.09798 8.88902 37498 ft 434 kts
2026-04-18 08:20 45.12773 8.89610 37737 ft 434 kts
2026-04-18 08:20 45.15750 8.90321 37977 ft 433 kts
2026-04-18 08:20 45.18722 8.91033 38141 ft 434 kts
2026-04-18 08:21 45.24675 8.92469 38167 ft 434 kts
2026-04-18 08:21 45.30631 8.93913 38168 ft 434 kts
2026-04-18 08:22 45.36586 8.95357 38174 ft 434 kts
2026-04-18 08:22 45.42541 8.96799 38177 ft 434 kts
2026-04-18 08:23 45.48507 8.98240 38169 ft 435 kts
2026-04-18 08:23 45.54478 8.99691 38166 ft 436 kts
2026-04-18 08:24 45.60456 9.01148 38167 ft 436 kts
2026-04-18 08:24 45.66455 9.02253 38159 ft 434 kts 359°
2026-04-18 08:25 45.72491 9.02498 38157 ft 434 kts 359°
2026-04-18 08:25 45.78541 9.02744 38163 ft 435 kts 359°
2026-04-18 08:26 45.84596 9.02985 38165 ft 436 kts 359°
2026-04-18 08:26 45.90660 9.03228 38161 ft 436 kts 359°
2026-04-18 08:27 45.96723 9.03477 38161 ft 436 kts 359°
2026-04-18 08:27 46.02797 9.03728 38169 ft 437 kts 359°
2026-04-18 08:28 46.08875 9.03979 38172 ft 437 kts 359°
2026-04-18 08:28 46.14959 9.04226 38195 ft 438 kts 359°
2026-04-18 08:29 46.21046 9.04243 38192 ft 437 kts 356°
2026-04-18 08:29 46.27119 9.03898 38200 ft 437 kts 355°
2026-04-18 08:30 46.33200 9.03525 38204 ft 437 kts 355°
2026-04-18 08:30 46.39286 9.03245 38208 ft 437 kts 356°
2026-04-18 08:31 46.45369 9.03000 38219 ft 437 kts 356°
2026-04-18 08:31 46.51415 9.02744 38226 ft 438 kts 356°
2026-04-18 08:32 46.57497 9.02488 38220 ft 438 kts 356°
2026-04-18 08:32 46.63588 9.02214 38240 ft 438 kts 355°
2026-04-18 08:33 46.69679 9.01944 38235 ft 438 kts 356°
2026-04-18 08:33 46.75777 9.01681 38240 ft 438 kts 356°
2026-04-18 08:34 46.81871 9.01414 38233 ft 438 kts 356°
2026-04-18 08:34 46.87965 9.01140 38236 ft 439 kts 355°
2026-04-18 08:35 46.94077 9.00866 38226 ft 439 kts 355°
2026-04-18 08:35 47.00192 9.00593 38231 ft 441 kts 355°
2026-04-18 08:36 47.06315 9.00330 38222 ft 440 kts 355°
2026-04-18 08:36 47.12321 9.00063 38218 ft 441 kts 355°
2026-04-18 08:37 47.18454 8.99790 38214 ft 441 kts 355°
2026-04-18 08:37 47.24504 8.99519 38222 ft 441 kts 355°
2026-04-18 08:38 47.30711 8.99243 38221 ft 441 kts 355°
2026-04-18 08:38 47.36852 8.98969 38220 ft 441 kts 355°
2026-04-18 08:39 47.42848 8.98700 38220 ft 442 kts 355°
2026-04-18 08:39 47.49099 8.98415 38225 ft 442 kts 355°
2026-04-18 08:39 47.52212 8.98274 38112 ft 441 kts 355°
2026-04-18 08:40 47.55240 8.98137 37457 ft 441 kts 355°
2026-04-18 08:40 47.58213 8.98002 36924 ft 442 kts 355°
2026-04-18 08:40 47.61395 8.97859 36383 ft 443 kts 355°
2026-04-18 08:40 47.64413 8.97726 35888 ft 444 kts 355°
2026-04-18 08:41 47.67556 8.97591 35389 ft 446 kts 355°
2026-04-18 08:41 47.70667 8.97453 34897 ft 447 kts 355°
2026-04-18 08:41 47.73787 8.97312 34415 ft 448 kts 354°
2026-04-18 08:41 47.76900 8.97167 33901 ft 449 kts 354°
2026-04-18 08:42 47.80032 8.97020 33346 ft 450 kts 354°
2026-04-18 08:42 47.83168 8.96870 32807 ft 452 kts 354°
2026-04-18 08:42 47.86313 8.96721 32344 ft 453 kts 355°
2026-04-18 08:42 47.89467 8.96574 31964 ft 454 kts 355°
2026-04-18 08:43 47.92413 8.96440 31609 ft 455 kts 355°
2026-04-18 08:43 47.95606 8.96297 31230 ft 456 kts 355°
2026-04-18 08:43 47.98787 8.96158 30855 ft 457 kts 355°
2026-04-18 08:43 48.01975 8.96019 30489 ft 458 kts 355°
2026-04-18 08:44 48.05167 8.95876 30198 ft 459 kts 355°
2026-04-18 08:44 48.11558 8.95570 30193 ft 460 kts 355°
2026-04-18 08:44 48.14761 8.95416 30084 ft 461 kts 355°
2026-04-18 08:45 48.17927 8.95510 29822 ft 464 kts
2026-04-18 08:45 48.21145 8.95996 29569 ft 465 kts
2026-04-18 08:45 48.24361 8.96488 29319 ft 465 kts
2026-04-18 08:45 48.27582 8.96977 29069 ft 465 kts
2026-04-18 08:46 48.30795 8.97467 28832 ft 465 kts
2026-04-18 08:46 48.32950 8.97799 28659 ft 455 kts
2026-04-18 08:46 48.37031 8.98428 28334 ft 435 kts
2026-04-18 08:46 48.39999 8.98885 28089 ft 422 kts
2026-04-18 08:47 48.42873 8.99327 27852 ft 409 kts
2026-04-18 08:47 48.45665 8.99755 27615 ft 397 kts
2026-04-18 08:47 48.48374 9.00167 27382 ft 386 kts
2026-04-18 08:47 48.51017 9.00563 27148 ft 377 kts
2026-04-18 08:48 48.52772 9.00826 26997 ft 374 kts
2026-04-18 08:48 48.56185 9.01340 26697 ft 371 kts
2026-04-18 08:48 48.58743 9.01731 26461 ft 369 kts
2026-04-18 08:48 48.60429 9.01991 26295 ft 368 kts
2026-04-18 08:49 48.62972 9.02386 26049 ft 366 kts
2026-04-18 08:49 48.66344 9.03062 25720 ft 365 kts
2026-04-18 08:49 48.68007 9.03456 25560 ft 365 kts
2026-04-18 08:49 48.70502 9.04083 25395 ft 363 kts
2026-04-18 08:50 48.72995 9.04724 25174 ft 362 kts
2026-04-18 08:50 48.75474 9.05357 24932 ft 361 kts
2026-04-18 08:50 48.77947 9.05975 24693 ft 359 kts
2026-04-18 08:50 48.80414 9.06572 24457 ft 358 kts
2026-04-18 08:51 48.82870 9.07155 24224 ft 357 kts
2026-04-18 08:51 48.85313 9.07733 23991 ft 355 kts
2026-04-18 08:51 48.87753 9.08315 23758 ft 354 kts
2026-04-18 08:51 48.90183 9.08823 23478 ft 351 kts
2026-04-18 08:52 48.92603 9.09206 23213 ft 349 kts
2026-04-18 08:52 48.95020 9.09524 22944 ft 347 kts
2026-04-18 08:52 48.97421 9.09818 22674 ft 346 kts
2026-04-18 08:52 48.99820 9.10115 22409 ft 345 kts
2026-04-18 08:53 49.02206 9.10425 22143 ft 343 kts
2026-04-18 08:53 49.04580 9.10749 21881 ft 342 kts
2026-04-18 08:53 49.06940 9.11081 21621 ft 340 kts
2026-04-18 08:53 49.09293 9.11415 21349 ft 339 kts
2026-04-18 08:54 49.11652 9.11751 20767 ft 342 kts
2026-04-18 08:54 49.14003 9.12092 20413 ft 336 kts
2026-04-18 08:54 49.16314 9.12431 19722 ft 332 kts
2026-04-18 08:54 49.18610 9.12766 19026 ft 329 kts
2026-04-18 08:55 49.20875 9.13094 18373 ft 325 kts
2026-04-18 08:55 49.23124 9.13415 17613 ft 322 kts
2026-04-18 08:55 49.25336 9.13733 16983 ft 317 kts
2026-04-18 08:55 49.27516 9.14049 16390 ft 313 kts
2026-04-18 08:56 49.29656 9.14621 15881 ft 313 kts
2026-04-18 08:56 49.31776 9.15378 15473 ft 312 kts
2026-04-18 08:56 49.33899 9.16130 15046 ft 310 kts
2026-04-18 08:56 49.35986 9.16866 14625 ft 309 kts
2026-04-18 08:57 49.40158 9.18339 13756 ft 307 kts
2026-04-18 08:57 49.42232 9.19074 13319 ft 304 kts 10°
2026-04-18 08:57 49.44288 9.19805 12900 ft 302 kts 10°
2026-04-18 08:58 49.46332 9.20530 12486 ft 301 kts 11°
2026-04-18 08:58 49.48366 9.21248 12075 ft 299 kts 11°
2026-04-18 08:58 49.50391 9.21965 11664 ft 299 kts 11°
2026-04-18 08:58 49.52394 9.22676 11255 ft 300 kts 11°
2026-04-18 08:59 49.54442 9.23407 11028 ft 296 kts 11°
2026-04-18 08:59 49.56424 9.24115 10958 ft 296 kts 12°
2026-04-18 08:59 49.58458 9.24842 10848 ft 296 kts 12°
2026-04-18 08:59 49.60464 9.25562 10741 ft 296 kts 12°
2026-04-18 09:00 49.62436 9.26270 10624 ft 294 kts 12°
2026-04-18 09:00 49.64435 9.26986 10506 ft 295 kts 12°
2026-04-18 09:00 49.66434 9.27703 10391 ft 295 kts 12°
2026-04-18 09:00 49.68435 9.28419 10276 ft 295 kts 12°
2026-04-18 09:01 49.70435 9.29133 10158 ft 294 kts 12°
2026-04-18 09:01 49.72429 9.29848 10092 ft 294 kts 12°
2026-04-18 09:01 49.74426 9.30561 9984 ft 295 kts 12°
2026-04-18 09:01 49.76423 9.31270 9846 ft 294 kts 12°
2026-04-18 09:02 49.78414 9.31987 9711 ft 293 kts 12°
2026-04-18 09:02 49.80398 9.32711 9578 ft 293 kts 12°
2026-04-18 09:02 49.82381 9.33395 9447 ft 292 kts
2026-04-18 09:02 49.84378 9.33179 9307 ft 287 kts 341°
2026-04-18 09:03 49.86100 9.31706 9180 ft 283 kts 316°
2026-04-18 09:03 49.87260 9.29251 9046 ft 279 kts 290°
2026-04-18 09:03 49.87704 9.26346 8918 ft 278 kts 279°
2026-04-18 09:03 49.88173 9.23432 8795 ft 278 kts 285°
2026-04-18 09:04 49.88755 9.20572 8656 ft 278 kts 287°
2026-04-18 09:04 49.89366 9.17726 8526 ft 278 kts 287°
2026-04-18 09:04 49.89968 9.14877 8397 ft 278 kts 286°
2026-04-18 09:04 49.90548 9.12027 8268 ft 277 kts 286°
2026-04-18 09:05 49.91110 9.09169 8143 ft 277 kts 285°
2026-04-18 09:05 49.91661 9.06308 8025 ft 277 kts 285°
2026-04-18 09:05 49.92208 9.03440 7889 ft 276 kts 285°
2026-04-18 09:05 49.92750 9.00584 7764 ft 276 kts 284°
2026-04-18 09:06 49.93288 8.97730 7636 ft 276 kts 285°
2026-04-18 09:06 49.94002 8.94975 7507 ft 277 kts 301°
2026-04-18 09:06 49.95317 8.92803 7382 ft 279 kts 324°
2026-04-18 09:06 49.97106 8.91678 7258 ft 282 kts 353°
2026-04-18 09:07 49.99046 8.91991 7134 ft 284 kts 18°
2026-04-18 09:07 50.00825 8.93320 7012 ft 285 kts 33°
2026-04-18 09:07 50.02381 8.95214 6889 ft 285 kts 44°
2026-04-18 09:07 50.03717 8.97484 6757 ft 284 kts 53°
2026-04-18 09:08 50.04792 9.00046 6643 ft 282 kts 63°
2026-04-18 09:08 50.05569 9.02837 6502 ft 281 kts 71°
2026-04-18 09:08 50.06238 9.05693 6380 ft 281 kts 71°
2026-04-18 09:08 50.06904 9.08547 6252 ft 281 kts 71°
2026-04-18 09:09 50.07570 9.11404 6118 ft 280 kts 71°
2026-04-18 09:09 50.08235 9.14250 5985 ft 280 kts 71°
2026-04-18 09:09 50.08901 9.17098 5861 ft 279 kts 71°
2026-04-18 09:09 50.09560 9.19928 5726 ft 278 kts 71°
2026-04-18 09:10 50.10216 9.22758 5594 ft 278 kts 71°
2026-04-18 09:10 50.10870 9.25585 5467 ft 277 kts 71°
2026-04-18 09:10 50.11521 9.28403 5330 ft 275 kts 71°
2026-04-18 09:10 50.12169 9.31208 5209 ft 275 kts 71°
2026-04-18 09:11 50.12819 9.34016 5072 ft 275 kts 71°
2026-04-18 09:11 50.13469 9.36824 4947 ft 275 kts 71°
2026-04-18 09:11 50.14117 9.39619 4816 ft 274 kts 71°
2026-04-18 09:11 50.14758 9.42414 4678 ft 273 kts 72°
2026-04-18 09:12 50.15389 9.45210 4563 ft 273 kts 72°
2026-04-18 09:12 50.16013 9.48011 4429 ft 273 kts 72°
2026-04-18 09:12 50.16628 9.50797 4297 ft 272 kts 72°
2026-04-18 09:12 50.17243 9.53583 4168 ft 272 kts 72°
2026-04-18 09:13 50.18004 9.56261 4047 ft 272 kts 54°
2026-04-18 09:13 50.19413 9.58142 3992 ft 269 kts 25°
2026-04-18 09:13 50.21202 9.58747 3991 ft 270 kts 356°
2026-04-18 09:13 50.22982 9.57957 3999 ft 267 kts 327°
2026-04-18 09:14 50.24290 9.55959 4000 ft 264 kts 298°
2026-04-18 09:14 50.24943 9.53306 4006 ft 262 kts 279°
2026-04-18 09:14 50.24913 9.50463 3995 ft 259 kts 256°
2026-04-18 09:14 50.24458 9.47735 3993 ft 259 kts 254°
2026-04-18 09:15 50.23996 9.45021 3998 ft 259 kts 254°
2026-04-18 09:15 50.23530 9.42295 4001 ft 260 kts 254°
2026-04-18 09:15 50.23013 9.39633 3996 ft 259 kts 251°
2026-04-18 09:15 50.22417 9.36968 4001 ft 260 kts 249°
2026-04-18 09:16 50.21796 9.34324 4001 ft 260 kts 249°
2026-04-18 09:16 50.21166 9.31671 3995 ft 260 kts 249°
2026-04-18 09:16 50.20529 9.28988 4010 ft 260 kts 249°
2026-04-18 09:16 50.19914 9.26376 4000 ft 260 kts 247°
2026-04-18 09:17 50.19290 9.23701 4005 ft 259 kts 249°
2026-04-18 09:17 50.18678 9.21063 4002 ft 260 kts 250°
2026-04-18 09:17 50.18062 9.18410 4012 ft 260 kts 250°
2026-04-18 09:17 50.17452 9.15793 3998 ft 259 kts 250°
2026-04-18 09:18 50.16837 9.13150 4001 ft 250 kts 250°
2026-04-18 09:18 50.16263 9.10730 3998 ft 232 kts 249°
2026-04-18 09:18 50.15721 9.08420 4002 ft 217 kts 250°
2026-04-18 09:18 50.15218 9.06266 4006 ft 209 kts 250°
2026-04-18 09:19 50.14720 9.04129 4011 ft 210 kts 250°
2026-04-18 09:19 50.14223 9.01998 4017 ft 209 kts 250°
2026-04-18 09:19 50.13726 8.99869 4007 ft 209 kts 250°
2026-04-18 09:19 50.13227 8.97736 4021 ft 211 kts 250°
2026-04-18 09:20 50.12726 8.95596 4007 ft 210 kts 249°
2026-04-18 09:20 50.12227 8.93463 4006 ft 209 kts 249°
2026-04-18 09:20 50.11727 8.91333 4017 ft 210 kts 250°
2026-04-18 09:20 50.11227 8.89202 3992 ft 210 kts 249°
2026-04-18 09:21 50.10722 8.87052 3997 ft 209 kts 249°
2026-04-18 09:21 50.10235 8.84978 3843 ft 204 kts 249°
2026-04-18 09:21 50.09740 8.82878 3592 ft 203 kts 249°
2026-04-18 09:21 50.09251 8.80805 3343 ft 206 kts 250°
2026-04-18 09:22 50.08754 8.78694 3047 ft 206 kts 250°
2026-04-18 09:22 50.08264 8.76622 2789 ft 202 kts 250°
2026-04-18 09:22 50.07795 8.74638 2519 ft 188 kts 250°
2026-04-18 09:22 50.07362 8.72808 2287 ft 172 kts 251°
2026-04-18 09:23 50.06970 8.71151 2057 ft 159 kts 251°
2026-04-18 09:23 50.06599 8.69588 1852 ft 150 kts 251°
2026-04-18 09:23 50.06245 8.68091 1645 ft 146 kts 251°
2026-04-18 09:23 50.05884 8.66625 1446 ft 145 kts 250°
2026-04-18 09:24 50.05532 8.65144 1261 ft 143 kts 251°
2026-04-18 09:24 50.05192 8.63704 1065 ft 144 kts 251°
2026-04-18 09:24 50.04843 8.62252 918 ft 144 kts 251°
2026-04-18 09:24 50.04506 8.60783 696 ft 144 kts 252°
2026-04-18 09:25 50.04159 8.59319 516 ft 144 kts 251°
2026-04-18 09:25 50.03814 8.57865 370 ft 137 kts 251°
2026-04-18 09:25 50.03536 8.56691 353 ft 78 kts 249°
2026-04-18 09:25 50.03441 8.56249 352 ft 25 kts 259°
2026-04-18 09:26 50.03442 8.56019 347 ft 17 kts 277°
2026-04-18 09:26 50.03453 8.55914 350 ft 6 kts 281°
2026-04-18 09:26 50.03462 8.55848 347 ft 6 kts 281°
2026-04-18 09:26 50.03469 8.55779 346 ft 9 kts 278°
2026-04-18 09:27 50.03506 8.55698 345 ft 9 kts
2026-04-18 09:27 50.03551 8.55731 354 ft 9 kts 54°
2026-04-18 09:27 50.03586 8.55866 353 ft 16 kts 70°
2026-04-18 09:27 50.03625 8.56030 355 ft 17 kts 70°
2026-04-18 09:28 50.03667 8.56206 359 ft 18 kts 69°
2026-04-18 09:28 50.03725 8.56446 357 ft 29 kts 70°
2026-04-18 09:28 50.03798 8.56752 357 ft 31 kts 70°
2026-04-18 09:28 50.03873 8.57065 360 ft 31 kts 69°
2026-04-18 09:29 50.03946 8.57369 363 ft 30 kts 69°
2026-04-18 09:29 50.04014 8.57652 369 ft 27 kts 69°
2026-04-18 09:29 50.04081 8.57936 367 ft 29 kts 69°
2026-04-18 09:29 50.04153 8.58233 370 ft 30 kts 69°
2026-04-18 09:30 50.04227 8.58540 373 ft 31 kts 69°
2026-04-18 09:30 50.04303 8.58854 374 ft 30 kts 70°
2026-04-18 09:30 50.04372 8.59144 377 ft 21 kts 69°
2026-04-18 09:30 50.04426 8.59364 376 ft 23 kts 70°
2026-04-18 09:31 50.04466 8.59478 375 ft 9 kts 31°
2026-04-18 09:31 50.04486 8.59477 375 ft 5 kts 355°
2026-04-18 09:31 50.04561 8.59467 373 ft 2 kts 358°
2026-04-18 09:31 50.04603 8.59465 373 ft 13 kts 357°
2026-04-18 09:32 50.04665 8.59455 372 ft 15 kts 349°
2026-04-18 09:32 50.04765 8.59405 372 ft 7 kts 339°
2026-04-18 09:32 50.04788 8.59391 372 ft 1 kts 339°
2026-04-18 09:32 50.04824 8.59369 370 ft 3 kts 334°
2026-04-18 09:33 50.04828 8.59366 370 ft 1 kts 335°
2026-04-18 09:33 50.04830 8.59365 370 ft 1 kts 335°
2026-04-18 09:33 50.04847 8.59331 369 ft 10 kts 289°
2026-04-18 09:33 50.04828 8.59192 371 ft 13 kts 249°
2026-04-18 09:34 50.04824 8.59081 369 ft 10 kts 319°
2026-04-18 09:34 50.04882 8.59045 367 ft 0 kts 340°
2026-04-18 09:34 50.04879 8.59047 368 ft 1 kts 340°
2026-04-18 09:35 50.04878 8.59048 368 ft 0 kts 340°